sat.trackr.live / text

‹ back to catalog

STARLINK-5394

NORAD 54830 · 2022-177L

PAYLOAD ACTIVE UNKNOWN

§ Identity

Operator
Country
US
Launch date
2022-12-28
Launch site
AFETR
Launch vehicle
Mass (kg)
RCS (m²)

Purposes: comms

External: N2YO · Heavens-Above · Gunter

§ Orbital elements

Epoch: 2026-05-25T03:43:16.739040Z

Period
94.27 min
Inclination
43.0047°
Eccentricity
0.0001023
Mean motion
15.27573498 rev/d
Perigee alt
482.4 km
Apogee alt
483.8 km
Semi-major
6,861.2 km
B*
4.0849e-6
RAAN
64.5712°
Arg perigee
272.4386°
Mean anomaly
87.6349°
Rev number
18,861

§ Raw data

STARLINK-53941 54830U 22177L   26145.15505485 -.00000150  00000+0  40849-5 0  99962 54830  43.0047  64.5712 0001023 272.4386  87.6349 15.27573498188615

JSON: /api/v1/satellites/54830 · /tle

For live sub-satellite position, see the globe view (requires WebGL).

§ Visibility from observer

Set your observer location to see the next 7 days of passes ≥ 10°. The values pass through the URL so the page stays shareable.

No JS? Fill the form by hand. The geolocation button needs JavaScript.